Location: Les Salelles
(44.4192°N, 4.1044°E)
Time: 16:59:16
(UTC+00:00)

USA 229 DEB - Pass Details

Date: 20 January 2021
Orbit: 965 x 1247 km, 63.4° (Epoch: 26 February)

Event Time Altitude Azimuth Distance (km) Brightness Sun altitude
Rises 19:40:20 0° 322° (NW) 3,957 7.2 -32.5°
Reaches altitude 10° 19:42:58 10° 323° (NW) 3,034 6.5 -33.0°
Enters shadow 19:49:18 70° 336° (NNW) 1,256 3.9 -34.1°
